Tracking 19485 objects as of 22-Jan-2019
HD Live streaming from Space Station
objects crossing your sky now

FLOCK 3M 4

Track FLOCK 3M 4 now!
10-day predictions
FLOCK 3M 4 is classified as:


NORAD ID: 42997
Int'l Code: 2017-068L
Perigee: 502.8 km
Apogee: 525.4 km
Inclination: 97.4 °
Period: 94.8 minutes
Semi major axis: 6885 km
RCS: Unknown
Launch date: October 31, 2017
Source: United States (US)
Launch site: AIR FORCE WESTERN TEST RANGE (AFWTR)
aabbcc
Your satellite tracking list
Your tracking list is empty




NASA's NSSDC Master Catalog

Two Line Element Set (TLE):
1 42997U 17068L   19021.88332230  .00003432  00000-0  16374-3 0  9991
2 42997  97.3778 135.2073 0016379  98.7413  25.6912 15.19628399 67846
Source of the keplerian elements: AFSPC